Randolph AFB, TX

1:53 AM CDT on April 21, 2018 (GMT -0500)
Randolph Air Force Base

Weather History for KRND - May, 2014

Change the Weather History Date:

Saturday, May 17, 2014

  Actual Average Record
Temperature  
Mean Temperature 72 °F -  
Max Temperature 86 °F 84 °F 96 °F (2013)
Min Temperature 58 °F 65 °F 53 °F (1997)
Cooling Degree Days 7    
Growing Degree Days 22 (Base 50)    
Moisture  
Dew Point 55 °F    
Average Humidity 57    
Maximum Humidity 87    
Minimum Humidity 32    
Precipitation  
Precipitation 0.00 in - - ()
Sea Level Pressure  
Sea Level Pressure 29.99 in    
Wind  
Wind Speed 12 mph (South)    
Max Wind Speed 18 mph    
Max Gust Speed 26 mph    
Visibility 10 miles    
Events      
Averages and records for this station are not official NWS values.
T = Trace of Precipitation, MM = Missing Value Source: NWS Daily Summary

Daily Weather History Graph

Daily Weather History Graph

Search for Another Location

Airport or City:

Astronomy

May. 17, 2014 Rise Set
Actual Time 6:39 AM CDT 8:19 PM CDT
Civil Twilight 6:13 AM CDT 8:46 PM CDT
Nautical Twilight 5:41 AM CDT 9:17 PM CDT
Astronomical Twilight 5:09 AM CDT 9:50 PM CDT
Moon 11:23 PM CDT (5/17) 9:23 AM CDT (5/17)
Length of Visible Light 14h 32m
Length of Day
13h 40m
Waning Gibbous, 89% of the Moon is Illuminated
May 17
Waning Gibbous
May 21
Last Quarter
May 28
New
Jun 5
First Quarter
Jun 12
Full

Hourly Weather History & Observations

Time (CDT) Temp. Heat Index Dew Point Humidity Pressure Visibility Wind Dir Wind Speed Gust Speed Precip Events Conditions
12:58 AM 64.6 °F - 54.0 °F 68% 30.03 in 10.0 mi South 10.4 mph - N/A   Clear
1:58 AM 62.4 °F - 52.0 °F 69% 30.02 in 10.0 mi South 9.2 mph - N/A   Clear
2:58 AM 60.6 °F - 51.6 °F 72% 30.01 in 10.0 mi South 8.1 mph - N/A   Clear
3:58 AM 59.4 °F - 52.7 °F 79% 30.01 in 10.0 mi South 10.4 mph - N/A   Clear
4:58 AM 58.3 °F - 53.2 °F 83% 30.00 in 10.0 mi SSW 5.8 mph - N/A   Clear
5:58 AM 58.1 °F - 54.0 °F 86% 30.01 in 10.0 mi SSW 5.8 mph - N/A   Clear
6:58 AM 58.3 °F - 54.3 °F 87% 30.01 in 10.0 mi SSW 6.9 mph - N/A   Clear
7:58 AM 61.2 °F - 55.4 °F 81% 30.02 in 10.0 mi South 9.2 mph - N/A   Clear
8:58 AM 65.8 °F - 56.3 °F 71% 30.02 in 10.0 mi South 18.4 mph 24.2 mph N/A   Clear
9:58 AM 70.3 °F - 56.7 °F 62% 30.03 in 10.0 mi South 16.1 mph 25.3 mph N/A   Clear
10:58 AM 74.5 °F - 57.4 °F 55% 30.02 in 10.0 mi SSW 15.0 mph - N/A   Clear
11:26 AM 75.2 °F - 57.2 °F 53% 30.03 in 10.0 mi SW 15.0 mph 23.0 mph N/A   Partly Cloudy
11:58 AM 77.4 °F - 57.7 °F 51% 30.01 in 10.0 mi SSW 13.8 mph 25.3 mph N/A   Clear
12:58 PM 80.6 °F 80.8 °F 57.7 °F 45% 29.99 in 10.0 mi South 18.4 mph - N/A   Partly Cloudy
1:58 PM 83.3 °F 82.8 °F 57.6 °F 41% 29.96 in 10.0 mi SSE 18.4 mph 26.5 mph N/A   Mostly Cloudy
2:17 PM 84.2 °F 83.0 °F 55.4 °F 37% 29.98 in 10.0 mi South 13.8 mph 26.5 mph N/A   Scattered Clouds
2:22 PM 84.2 °F 83.5 °F 57.2 °F 40% 29.98 in 10.0 mi SSE 13.8 mph 23.0 mph N/A   Scattered Clouds
2:58 PM 85.1 °F 83.9 °F 56.3 °F 37% 29.95 in 10.0 mi South 16.1 mph 23.0 mph N/A   Partly Cloudy
3:58 PM 86.2 °F 84.2 °F 53.1 °F 32% 29.93 in 10.0 mi SSE 15.0 mph 23.0 mph N/A   Clear
4:58 PM 84.9 °F 83.3 °F 53.8 °F 34% 29.93 in 10.0 mi SSE 13.8 mph 23.0 mph N/A   Partly Cloudy
5:58 PM 85.3 °F - 52.2 °F 32% 29.93 in 10.0 mi SSE 17.3 mph - N/A   Clear
6:58 PM 82.9 °F 81.8 °F 53.6 °F 36% 29.91 in 10.0 mi SSE 17.3 mph - N/A   Clear
7:58 PM 77.9 °F - 54.5 °F 44% 29.93 in 10.0 mi SSE 15.0 mph - N/A   Clear
8:58 PM 73.6 °F - 53.6 °F 50% 29.95 in 10.0 mi SSE 15.0 mph - N/A   Clear
9:58 PM 70.7 °F - 54.7 °F 57% 29.96 in 10.0 mi SSE 12.7 mph - N/A   Clear
10:58 PM 68.2 °F - 56.7 °F 67% 29.99 in 10.0 mi SSE 10.4 mph - N/A   Clear
11:58 PM 66.0 °F - 58.3 °F 76% 30.01 in 10.0 mi SSE 10.4 mph - N/A   Clear